Other Public Products
Issued by NWS Grand Forks, ND

Home | Current Version | Previous Version | Graphics & Text | Print | Product List | Glossary On
Versions: 1 2 3 4 5 6 7 8 9 10 11 12 13 14 15 16 17 18 19 20 21 22 23 24 25 26 27 28 29 30 31 32 33 34 35 36 37 38 39 40 41 42 43 44 45 46 47 48 49 50
643
FPUS83 KFGF 281431
OPUFGF
PRAIRIE TO PINES WEATHER ROUNDUP
NATIONAL WEATHER SERVICE EASTERN NORTH DAKOTA/GRAND FORKS ND
900 AM CDT THU JUL 28 2016

 **SATELLITE DATA USED TO AUGMENT SKY COVER AT AUTOMATED STATIONS**
 *****  WEATHER ACROSS EASTERN NORTH DAKOTA  *****

CITY           SKY/WX    TMP DP  RH WIND       PRES   REMARKS
GRAND FORKS    MOSUNNY   66  57  72 NE8       30.12S
GRAND FORKS AF SUNNY     64  56  76 NE8       30.13S
GRAND CITY NWS   N/A     64 N/A N/A NE7         N/A
BUXTON           N/A     66  64  93 N6          N/A
DEVILS LAKE    CLOUDY    63  55  77 NE8       30.17S
FARGO          MOSUNNY   68  62  81 N3        30.08S
WAHPETON ARPT  CLOUDY    70  61  73 SE3       30.09R
$$

 *****  WEATHER ACROSS CENTRAL AND WESTERN NORTH DAKOTA  *****

CITY           SKY/WX    TMP DP  RH WIND       PRES   REMARKS
JAMESTOWN      MOSUNNY   63  59  87 N7        30.13R
BISMARCK       CLOUDY    64  58  80 E6        30.16R
MINOT          CLOUDY    67  55  65 E5        30.17R
MINOT AFB      CLOUDY    64  57  77 SE5       30.17R
GARRISON         N/A     62  58  86 E6        30.16S
WILLISTON      SUNNY     65  59  81 NE6       30.18R
DICKINSON      CLOUDY    59  58  96 E12       30.14S
HETTINGER      CLOUDY    66  60  81 E7        30.16R
$$

 *****  OTHER OBSERVATIONS NORTHEAST NORTH DAKOTA  *****

CITY           SKY/WX    TMP DP  RH WIND       PRES   REMARKS
WALHALLA       FAIR      59  57  94 NW6       30.17F
LANGDON        FAIR      63  55  77 NE7       30.18S
CAVALIER       FAIR      61  55  82 N6        30.16S
GRAFTON        FAIR      64  59  82 NE9       30.16S
CANDO          FAIR      63  57  82 NE7       30.20R
FORT TOTTEN    NOT AVBL
ROLLA          FAIR      61  54  77 NE5       30.20S
RUGBY          NOT AVBL
 ***** THE ABOVE OBSERVATIONS ARE NON NWS ARE NOT QUALITY
        CONTROLLED AND MAY MIS-REPORT RAIN FOR SNOW...
$$

 *****  OTHER OBSERVATIONS SOUTHEAST NORTH DAKOTA *****

CITY           SKY/WX    TMP DP  RH WIND       PRES   REMARKS
COOPERSTOWN    NOT AVBL
VALLEY CITY    CLOUDY    63  63 100 NE8       30.14S
OAKES            N/A    N/A N/A N/A MISG        N/A
GWINNER        FAIR      64  61  88 N6        30.10F
SHEYENNE NWR     N/A     64  60  88 N2        29.95S
BUFFALO          N/A     67  57  71 N3          N/A
WYNDMERE         N/A     68  64  88 CALM        N/A
 ***** THE ABOVE OBSERVATIONS ARE NON NWS ARE NOT QUALITY
       CONTROLLED AND MAY MIS-REPORT RAIN FOR SNOW...
$$

  *****  WEATHER ACROSS NORTHERN MINNESOTA  *****

CITY           SKY/WX    TMP DP  RH WIND       PRES   REMARKS
FLAG ISLAND    CLOUDY    63  55  77 NE8       30.13F
WARROAD        MOSUNNY   64  59  82 N7        30.15S
ROSEAU         SUNNY     63  57  82 NE7       30.14F
HALLOCK        SUNNY     64  55  72 NE8       30.15S
THF RVR FALLS  SUNNY     64  56  75 E6        30.13F
HALSTAD          N/A     67  59  75 NE7         N/A
FOSSTON        MOSUNNY   64  57  77 CALM      30.12S
BAUDETTE       MOSUNNY   62  55  77 NE3       30.13S
WASKISH        SUNNY     66  57  72 CALM      30.12F
CROOKSTON      SUNNY     66  61  82 E6        30.11F
$$
  *****  WEATHER ACROSS CENTRAL AND WEST MINNESOTA  *****

CITY           SKY/WX    TMP DP  RH WIND       PRES   REMARKS
BEMIDJI        PTSUNNY   63  57  82 NE3       30.12S
PARK RAPIDS    CLOUDY    68  61  78 N3        30.11R
WADENA         CLOUDY    66  63  88 E7        30.09F
DETROIT LAKES  PTSUNNY   68  63  83 CALM      30.11S
MOORHEAD       MOSUNNY   70  64  83 CALM      30.09S
FERGUS FALLS   PTSUNNY   70  63  78 E6        30.09S
ELBOW LAKE     FAIR      68  62  82 E8        30.09S
MORRIS MN      CLOUDY    72  63  73 E8        30.06F
STAPLES        MOSUNNY   66  61  82 NE6       30.09F
WHEATON        CLOUDY    70  64  83 CALM      30.10S
$$
  *****  WEATHER ELSEWHERE ACROSS MINNESOTA  *****

CITY           SKY/WX    TMP DP  RH WIND       PRES   REMARKS
DULUTH         SUNNY     68  54  60 E12       30.09R
INTRNTL FALLS  PTSUNNY   66  56  70 NE7       30.12R
ELY            SUNNY     64  54  68 E7        30.11S
CLOQUET        SUNNY     66  54  63 E8        30.09S
BRAINERD       MOSUNNY   66  59  78 NE6       30.10R
HIBBING        SUNNY     64  56  75 CALM      30.11R
ALEXANDRIA     CLOUDY    67  60  78 NE7       30.10S
SAINT CLOUD    CLOUDY    64  58  80 NE8       30.06S
MINNEAPOLIS    CLOUDY    65  61  87 N9        30.02R
$$

  *****  WEATHER ACROSS SOUTH DAKOTA  *****

CITY           SKY/WX    TMP DP  RH WIND       PRES   REMARKS
SIOUX FALLS    PTSUNNY   68  61  78 N6        30.08R
BROOKINGS      CLOUDY    65  62  90 NE8       30.09R
WATERTOWN      CLOUDY    66  61  84 NE6       30.10S
HURON          SUNNY     67  60  78 NW7       30.09S
SISSETON         N/A     66  61  84 N3        30.09R
ABERDEEN       CLOUDY    63  58  83 N9        30.11S
MITCHELL       MOSUNNY   69  62  78 NW5       30.11R
PIERRE         PTSUNNY   68  56  65 SE8       30.11R
MOBRIDGE       CLOUDY    66  58  75 E7        30.11F
RAPID CITY     PTSUNNY   66  60  81 NE5       30.12S
$$

  *****  SOME WEATHER IN NEARBY STATES *****

CITY           SKY/WX    TMP DP  RH WIND       PRES   REMARKS
GLASGOW MT     MOSUNNY   62  60  93 NE8       30.17S
GREAT FALLS MT SUNNY     65  51  60 E3        30.20F
CHEYENNE WY    LGT RAIN  58  57  97 E13G22    30.27R VSB 1/4
SCOTTSBLUFF NE SUNNY     66  56  70 SE13G20   30.17S
OMAHA NE       MOSUNNY   74  67  78 N8        30.03S
DES MOINES IA  MOSUNNY   75  67  76 NW10      29.98R
DAVENPORT IA   SUNNY     76  70  82 CALM      29.92F
CHICAGO IL     PTSUNNY   80  69  69 VRB5      29.91F
EAU CLAIRE WI  CLOUDY    67  65  93 NE12      29.98S
LA CROSSE WI   CLOUDY    70  66  87 N6        29.93R
$$

  *****  SOME NATIONAL WEATHER *****

CITY           SKY/WX    TMP DP  RH WIND       PRES   REMARKS
LA GUARDIA NY  PTSUNNY   88  66  48 CALM      29.91F HX  90
RALEIGH NC     MOSUNNY   86  74  67 SW5       29.95S HX  94
ATLANTA GA     PTSUNNY   78  70  76 W12G20    30.06S
NEW ORLEANS LA MOSUNNY   86  78  77 SW7       30.05R HX  98
OKLAHOMA CITY  MOSUNNY   80  74  81 CALM      30.01F
ALBUQUERQUE NM MOSUNNY   73  55  53 N6        30.26R
SALT LAKE CITY MOSUNNY   77  42  28 SE6       30.08R
LOS ANGELES CA MOSUNNY   70  65  84 W3        29.91R
BOISE ID       SUNNY     71  46  40 CALM      30.07R
SEATTLE WA     SUNNY     62  59  90 N3        30.14R
$$

*** WEATHER ACROSS MANITOBA...SASKATCHEWAN AND ONTARIO ***
                ***ONTARIO***

CITY           SKY/WX    TMP DP  RH WIND       PRES   REMARKS
GERALDTON      CLOUDY    57  52  82 NW6       30.13F
THUNDER BAY    MOSUNNY   68  55  64 E8        30.11F
SIOUX LOOKOUT  PTSUNNY   61  52  72 NE3       30.16S
TORONTO        CLOUDY    79  61  53 N7        29.93S
BIG TROUT LK   NOT AVBL
PICKLE LAKE    PTSUNNY   61  50  67 VRB2      30.16F
DRYDEN         CLOUDY    63  52  67 NE7       30.16R
KENORA         PTSUNNY   63  52  67 NE7       30.16S
$$
                *** MANITOBA***

CITY           SKY/WX    TMP DP  RH WIND       PRES   REMARKS
BRANDON        MOSUNNY   63  55  77 NW3       30.18S
DAUPHIN        SUNNY     64  59  82 SW5       30.15S
ISLAND LAKE    PTSUNNY   63  52  67 W5        30.12F
PILOT MOUND      N/A     63  54  72 E2          N/A
THE PAS        PTSUNNY   66  63  88 SW2       30.07F
THOMPSON       PTSUNNY   64  57  77 SW6       30.04F
WINNIPEG       SUNNY     64  54  68 VRB2      30.17F
LYNN LAKE      SUNNY     63  59  88 MISG      30.06S
CHURCHILL      MOSUNNY   54  48  82 N14       30.04R
GILLAM         PTSUNNY   61  55  82 SW7       30.06S
$$
                ***SASKATCHEWAN***

CITY           SKY/WX    TMP DP  RH WIND       PRES   REMARKS
ESTEVAN        MOSUNNY   63  57  82 SE3       30.19R
KINDERSLEY     MOSUNNY   63  55  77 S6        30.15S
LLOYDMINSTER   PTSUNNY   66  61  82 W3        30.12F
PRINCE ALBERT  MOSUNNY   68  57  68 SW9       30.10F
REGINA         MOSUNNY   61  55  82 S7        30.18S
YORKTON        SUNNY     64  57  77 SW7       30.16S   C1F1C2F2C3F3C4F4C5F5C6F6C7F7C8F8C9F9CaFaCbFbCcFcCdFdCe!



USA.gov is the U.S. government's official web portal to all federal, state and local government web resources and services.